Location: Leimbach
(47.5611°N, 9.1881°E)
Time: 04:49:26
(UTC+00:00)

Cosmos 1455 - Pass Details

Date: 07 June 2020
Orbit: 499 x 522 km, 82.5° (Epoch: 10 July)

Event Time Altitude Azimuth Distance (km) Brightness Sun altitude
Rises 00:54:15 0° 336° (NNW) 2,604 6.5 -16.7°
Reaches altitude 10° 00:56:47 10° 320° (NW) 1,715 5.2 -16.5°
Maximum altitude 00:59:32 20° 272° (W) 1,219 3.9 -16.3°
Enters shadow 01:00:09 19° 259° (WSW) 1,247 3.8 -16.3°
